Regional Weather Roundup
Issued by NWS

Home | Current Version | Previous Version | Text Only | Print | Product List | Glossary Off
Versions: 1 2 3 4 5 6 7 8 9 10 11 12 13 14 15 16 17 18 19 20 21 22 23 24 25 26 27

000
ASUS45 KTFX 261810
RWRMT
MONTANA REGIONAL WEATHER ROUNDUP
NATIONAL WEATHER SERVICE GREAT FALLS MT
1200 PM MDT MON SEP 26 2016

NOTE: "FAIR" INDICATES FEW OR NO CLOUDS BELOW 12000 FEET WITH NO
SIGNIFICANT WEATHER AND/OR OBSTRUCTIONS TO VISIBILITY.

MTZ001>007-043-261900-
WEST OF THE DIVIDE

CITY           SKY/WX    TMP DP  RH WIND       PRES   REMARKS
KALISPELL      MOSUNNY   62  44  51 NE3       30.33F
MISSOULA       MOSUNNY   56  45  66 CALM      30.38F
BUTTE          CLOUDY    60  41  49 N5        30.43F
MULLAN PASS    MOSUNNY   57  43  59 S8        30.40F
ANACONDA         N/A     66  43  42 SE12      30.39F
DEER LODGE       N/A     61  45  55 CALM      30.42F
EUREKA           N/A     57  43  58 CALM      30.31F
HAMILTON         N/A     64  46  52 SE5       30.36F
LIBBY            N/A     57  45  62 NE3       30.30F
PLAINS           N/A     60  45  57 CALM      30.30F
RONAN            N/A     64  45  50 W1        30.35F
$$

MTZ008-052>055-261900-
SOUTHWEST MONTANA

CITY           SKY/WX    TMP DP  RH WIND       PRES   REMARKS
BOZEMAN        SUNNY     65  47  52 VRB3      30.39F
DILLON         SUNNY     62  41  46 VRB6      30.42F
W YELLOWSTONE  SUNNY     54  36  50 CALM      30.51F
ENNIS          SUNNY     64  39  39 VRB5      30.47F
THREE FORKS      N/A     65  65 100 CALM      30.34F
$$

MTZ009-010-012-014-046-048-049-054-261900-
EAST SLOPES AND CENTRAL MONTANA

CITY           SKY/WX    TMP DP  RH WIND       PRES   REMARKS
CUT BANK       SUNNY     72  38  29 SW9       30.22F
GREAT FALLS    CLOUDY    69  44  40 SW16      30.25F
MALMSTROM AFB  SUNNY     69  46  43 SW14G21   30.25F
HELENA         SUNNY     67  44  43 NE8       30.34F
AUGUSTA          N/A     69  38  31 SW10      30.27F
BOWMANS CRNR     N/A     65  44  45 S22G29    30.26F
CHOTEAU          N/A     73  37  27 SW8       30.26F
CONRAD           N/A     71  45  39 S6        30.23F
FAIRFIELD        N/A     70  42  36 SW16G22   30.24F
POWER            N/A     67  44  44 SW10G18   30.25F
RAYNESFORD       N/A     70  44  39 W7        30.26F
$$

MTZ011-013-016-021-045-047-050-051-261900-
NORTH CENTRAL MONTANA

CITY           SKY/WX    TMP DP  RH WIND       PRES   REMARKS
HAVRE          MOSUNNY   64  46  52 SW14      30.23F
LEWISTOWN      SUNNY     65  41  41 N5        30.30F
N BAR RANCH      N/A     66  43  42 VRB5      30.33F
CHINOOK          N/A     64  48  55 W5        30.23F
DENTON           N/A     67  42  40 W8        30.24F
GEYSER           N/A     69  38  31 SW10      30.27F
GRASS RANGE      N/A     66  43  43 W9G18     30.26F
JUDITH GAP       N/A     64  45  49 S5G13     30.31F
ROY              N/A     66  47  50 MISG      30.27F
STANFORD         N/A     65  42  43 SE5       30.29F
WINIFRED         N/A     65  44  48 MISG      30.27F
$$

MTZ017>020-022>027-061-062-261900-
NORTHEAST MONTANA

CITY           SKY/WX    TMP DP  RH WIND       PRES   REMARKS
GLASGOW        CLOUDY    61  41  47 SW5       30.23F
JORDAN           N/A     67  42  40 W8        30.24F
SIDNEY         SUNNY     64  44  48 E6        30.22F
WOLF POINT     SUNNY     66  41  40 W9        30.22F
POPLAR           N/A     63  39  42 SW9       30.22F
$$

MTZ028>42-056>058-261900-
SOUTHCENTRAL AND SOUTHEAST MONTANA

CITY           SKY/WX    TMP DP  RH WIND       PRES   REMARKS
BAKER          SUNNY     60  43  53 W12       30.26F
BILLINGS       MOSUNNY   65  45  48 SW7       30.32F
LIVINGSTON     SUNNY     68  40  35 W18       30.36F
MILES CITY     SUNNY     67  38  34 NW6       30.27F
BIG TIMBER     SUNNY     68  43  40 W28       30.34F
FORSYTH          N/A     64  45  48 W8        30.27F
HARLOWTON        N/A     68  44  40 W23G30    30.30F
LAUREL           N/A     66  43  43 S6        30.28F
ROUNDUP          N/A     64  45  50 S9        30.19F
$$

REGIONAL REPORTS...DAKOTAS

CITY           SKY/WX    TMP DP  RH WIND       PRES   REMARKS
WILLISTON      SUNNY     66  34  30 NW18      30.21S
MINOT          SUNNY     64  34  32 NW20      30.12S
DICKINSON      SUNNY     62  33  33 NW16      30.19F
CROSBY           N/A     63  32  31 NW15G23   30.20F
WATFORD CITY     N/A     63  37  39 NW10G16   30.21S
BISMARCK       SUNNY     65  35  33 NW16G24   30.15F
GRAND FORKS    MOSUNNY   62  40  44 NW24G33   29.93S
FARGO          SUNNY     65  33  30 NW26G35   29.96F
BUFFALO SD       N/A     64  42  44 NW23G31   30.18F
RAPID CITY     SUNNY     72  41  32 NW18      30.25F
$$

REGIONAL REPORTS...WYOMING/IDAHO/WASHINGTON

CITY           SKY/WX    TMP DP  RH WIND       PRES   REMARKS
GILLETTE       SUNNY     63  43  48 NW16G22   30.34F
SHERIDAN       SUNNY     68  45  43 NW8G17    30.34F
BUFFALO WY     SUNNY     65  39  38 VRB5      30.38F
CODY           SUNNY     65  43  44 SE6       30.39F
YELLOWSTONE LA   N/A     49  40  71 SE5       30.56F
IDAHO FALLS    SUNNY     61  40  45 CALM      30.45F
SALMON           N/A     63 N/A N/A CALM      30.43
BOISE          SUNNY     74  35  24 SE15      30.32F
SPOKANE        PTSUNNY   63  44  50 NE10      30.25F
$$

REGIONAL REPORTS...ALBERTA

CITY           SKY/WX    TMP DP  RH WIND       PRES   REMARKS
$$

REGIONAL REPORTS...SASKATCHEWAN

CITY           SKY/WX    TMP DP  RH WIND       PRES   REMARKS
$$




USA.gov is the U.S. government's official web portal to all federal, state and local government web resources and services.